Time,TemperatureF,DewpointF,PressureIn,WindDirection,WindDirectionDegrees,WindSpeedMPH,WindSpeedGustMPH,Humidity,HourlyPrecipIn,Conditions,Clouds,dailyrainin,SoftwareType,DateUTC
2013-02-28 00:01:00,32.5,32.0,29.68,NNE,21,11.0,14.0,96,0.00,,,0.00,weatherlink.com 1.10,2013-02-28 05:01:00,
2013-02-28 00:16:00,32.4,31.0,29.68,NE,49,10.0,16.0,96,0.00,,,0.00,weatherlink.com 1.10,2013-02-28 05:16:00,
2013-02-28 00:31:00,32.4,31.0,29.68,NNE,32,14.0,15.0,96,0.00,,,0.00,weatherlink.com 1.10,2013-02-28 05:31:00,
2013-02-28 00:46:00,32.3,31.0,29.68,NE,42,12.0,17.0,96,0.00,,,0.00,weatherlink.com 1.10,2013-02-28 05:46:00,
2013-02-28 01:01:00,32.2,32.0,29.68,NE,42,12.0,18.0,97,0.00,,,0.00,weatherlink.com 1.10,2013-02-28 06:01:00,
2013-02-28 01:16:00,32.1,31.0,29.68,NE,38,9.0,18.0,97,0.00,,,0.00,weatherlink.com 1.10,2013-02-28 06:16:00,
2013-02-28 01:31:00,32.1,31.0,29.68,NNE,32,11.0,18.0,97,0.00,,,0.00,weatherlink.com 1.10,2013-02-28 06:31:00,
2013-02-28 01:46:00,32.1,31.0,29.69,NNE,17,12.0,19.0,97,0.00,,,0.00,weatherlink.com 1.10,2013-02-28 06:46:00,
2013-02-28 02:01:00,32.1,31.0,29.69,NE,35,14.0,21.0,97,0.00,,,0.00,weatherlink.com 1.10,2013-02-28 07:01:00,
2013-02-28 02:17:00,32.1,31.0,29.70,NNE,29,14.0,18.0,97,0.00,,,0.00,weatherlink.com 1.10,2013-02-28 07:17:00,
2013-02-28 02:32:00,32.1,31.0,29.70,NE,36,12.0,18.0,97,0.00,,,0.00,weatherlink.com 1.10,2013-02-28 07:32:00,
2013-02-28 02:47:00,32.0,31.0,29.69,NNE,30,14.0,16.0,97,0.00,,,0.00,weatherlink.com 1.10,2013-02-28 07:47:00,
2013-02-28 03:02:00,32.0,31.0,29.69,NE,44,17.0,19.0,97,0.00,,,0.00,weatherlink.com 1.10,2013-02-28 08:02:00,
2013-02-28 03:17:00,32.2,32.0,29.70,NE,52,13.0,20.0,97,0.00,,,0.00,weatherlink.com 1.10,2013-02-28 08:17:00,
2013-02-28 03:32:00,32.3,31.0,29.69,ENE,59,15.0,19.0,96,0.00,,,0.00,weatherlink.com 1.10,2013-02-28 08:32:00,
2013-02-28 03:47:00,31.8,31.0,29.70,NE,34,17.0,23.0,96,0.00,,,0.00,weatherlink.com 1.10,2013-02-28 08:47:00,
2013-02-28 04:02:00,31.6,31.0,29.70,NNE,28,16.0,20.0,96,0.00,,,0.00,weatherlink.com 1.10,2013-02-28 09:02:00,
2013-02-28 04:17:00,31.6,31.0,29.70,NNE,26,14.0,21.0,96,0.00,,,0.00,weatherlink.com 1.10,2013-02-28 09:17:00,
2013-02-28 04:32:00,31.7,31.0,29.71,NNE,32,11.0,19.0,96,0.00,,,0.00,weatherlink.com 1.10,2013-02-28 09:32:00,
2013-02-28 04:47:00,31.9,31.0,29.71,NE,43,17.0,22.0,96,0.00,,,0.00,weatherlink.com 1.10,2013-02-28 09:47:00,
2013-02-28 05:02:00,32.1,31.0,29.72,NE,40,14.0,19.0,94,0.00,,,0.00,weatherlink.com 1.10,2013-02-28 10:02:00,
2013-02-28 05:17:00,32.2,30.0,29.73,NE,34,8.0,19.0,92,0.00,,,0.00,weatherlink.com 1.10,2013-02-28 10:17:00,
2013-02-28 05:32:00,32.1,30.0,29.73,NE,55,17.0,19.0,92,0.00,,,0.00,weatherlink.com 1.10,2013-02-28 10:32:00,
2013-02-28 05:47:00,31.8,30.0,29.73,NNE,33,12.0,18.0,92,0.00,,,0.00,weatherlink.com 1.10,2013-02-28 10:47:00,
2013-02-28 06:02:00,31.9,30.0,29.74,NNE,32,14.0,20.0,91,0.00,,,0.00,weatherlink.com 1.10,2013-02-28 11:02:00,
2013-02-28 06:17:00,31.7,29.0,29.75,NE,45,14.0,18.0,91,0.00,,,0.00,weatherlink.com 1.10,2013-02-28 11:17:00,
2013-02-28 06:32:00,31.6,29.0,29.75,NNE,33,17.0,17.0,91,0.00,,,0.00,weatherlink.com 1.10,2013-02-28 11:32:00,
2013-02-28 06:47:00,31.6,29.0,29.76,NE,44,16.0,18.0,90,0.00,,,0.00,weatherlink.com 1.10,2013-02-28 11:47:00,
2013-02-28 07:02:00,31.4,29.0,29.77,NNE,24,15.0,20.0,91,0.00,,,0.00,weatherlink.com 1.10,2013-02-28 12:02:00,
2013-02-28 07:17:00,30.8,29.0,29.77,NNE,32,17.0,23.0,92,0.00,,,0.00,weatherlink.com 1.10,2013-02-28 12:17:00,
2013-02-28 07:32:00,30.6,29.0,29.77,NE,38,15.0,21.0,92,0.00,,,0.00,weatherlink.com 1.10,2013-02-28 12:32:00,
2013-02-28 07:47:00,30.6,29.0,29.79,NE,41,14.0,22.0,92,0.00,,,0.00,weatherlink.com 1.10,2013-02-28 12:47:00,
2013-02-28 08:02:00,30.5,28.0,29.79,NE,41,15.0,20.0,91,0.00,,,0.00,weatherlink.com 1.10,2013-02-28 13:02:00,
2013-02-28 08:17:00,30.5,28.0,29.80,NE,45,13.0,22.0,91,0.00,,,0.00,weatherlink.com 1.10,2013-02-28 13:17:00,
2013-02-28 08:32:00,30.5,29.0,29.80,NE,49,15.0,18.0,92,0.00,,,0.00,weatherlink.com 1.10,2013-02-28 13:32:00,
2013-02-28 08:47:00,30.4,28.0,29.81,NE,40,13.0,19.0,92,0.00,,,0.00,weatherlink.com 1.10,2013-02-28 13:47:00,
2013-02-28 09:02:00,30.3,28.0,29.82,NE,37,10.0,19.0,91,0.00,,,0.00,weatherlink.com 1.10,2013-02-28 14:02:00,
2013-02-28 09:17:00,30.3,28.0,29.82,NNE,20,10.0,18.0,91,0.00,,,0.00,weatherlink.com 1.10,2013-02-28 14:17:00,
2013-02-28 09:32:00,30.1,28.0,29.83,NNE,31,16.0,22.0,93,0.00,,,0.00,weatherlink.com 1.10,2013-02-28 14:32:00,
2013-02-28 09:47:00,30.2,28.0,29.83,North,360,11.0,17.0,92,0.00,,,0.00,weatherlink.com 1.10,2013-02-28 14:47:00,
2013-02-28 10:03:00,30.0,28.0,29.83,NE,49,13.0,18.0,91,0.00,,,0.00,weatherlink.com 1.10,2013-02-28 15:03:00,
2013-02-28 10:18:00,30.3,27.0,29.84,NNE,22,16.0,18.0,88,0.00,,,0.00,weatherlink.com 1.10,2013-02-28 15:18:00,
2013-02-28 10:33:00,30.2,27.0,29.84,NE,36,14.0,21.0,87,0.00,,,0.00,weatherlink.com 1.10,2013-02-28 15:33:00,
2013-02-28 10:48:00,30.0,27.0,29.84,NNE,20,12.0,22.0,87,0.00,,,0.00,weatherlink.com 1.10,2013-02-28 15:48:00,
2013-02-28 11:03:00,29.9,26.0,29.84,NE,38,19.0,25.0,86,0.00,,,0.00,weatherlink.com 1.10,2013-02-28 16:03:00,
2013-02-28 11:18:00,29.6,26.0,29.84,NNE,32,17.0,28.0,85,0.00,,,0.00,weatherlink.com 1.10,2013-02-28 16:18:00,
2013-02-28 11:33:00,29.6,26.0,29.85,NNE,13,11.0,23.0,86,0.00,,,0.00,weatherlink.com 1.10,2013-02-28 16:33:00,
2013-02-28 11:48:00,29.6,26.0,29.86,North,360,13.0,21.0,86,0.00,,,0.00,weatherlink.com 1.10,2013-02-28 16:48:00,
2013-02-28 12:03:00,29.8,26.0,29.86,NNE,28,16.0,19.0,84,0.00,,,0.00,weatherlink.com 1.10,2013-02-28 17:03:00,
2013-02-28 12:18:00,29.9,25.0,29.87,NNE,19,12.0,22.0,83,0.00,,,0.00,weatherlink.com 1.10,2013-02-28 17:18:00,
2013-02-28 12:33:00,29.9,25.0,29.87,NNE,15,13.0,19.0,82,0.00,,,0.00,weatherlink.com 1.10,2013-02-28 17:33:00,
2013-02-28 12:48:00,29.9,25.0,29.87,NE,50,17.0,18.0,82,0.00,,,0.00,weatherlink.com 1.10,2013-02-28 17:48:00,
2013-02-28 13:03:00,29.7,25.0,29.87,North,9,12.0,20.0,82,0.00,,,0.00,weatherlink.com 1.10,2013-02-28 18:03:00,
2013-02-28 13:33:00,29.3,24.0,29.88,North,5,12.0,22.0,81,0.00,,,0.00,weatherlink.com 1.10,2013-02-28 18:33:00,
2013-02-28 13:48:00,29.4,24.0,29.88,NNE,31,15.0,20.0,81,0.00,,,0.00,weatherlink.com 1.10,2013-02-28 18:48:00,
2013-02-28 14:03:00,29.4,24.0,29.88,NNE,32,11.0,16.0,80,0.00,,,0.00,weatherlink.com 1.10,2013-02-28 19:03:00,
2013-02-28 14:18:00,29.5,24.0,29.89,NE,36,13.0,16.0,80,0.00,,,0.00,weatherlink.com 1.10,2013-02-28 19:18:00,
2013-02-28 14:48:00,29.7,24.0,29.89,NE,38,15.0,18.0,79,0.00,,,0.00,weatherlink.com 1.10,2013-02-28 19:48:00,
2013-02-28 15:03:00,29.7,24.0,29.90,NE,40,8.0,18.0,79,0.00,,,0.00,weatherlink.com 1.10,2013-02-28 20:03:00,
2013-02-28 15:18:00,29.5,23.0,29.91,NNE,28,16.0,20.0,77,0.00,,,0.00,weatherlink.com 1.10,2013-02-28 20:18:00,
2013-02-28 15:33:00,29.1,23.0,29.91,NNE,26,13.0,23.0,78,0.00,,,0.00,weatherlink.com 1.10,2013-02-28 20:33:00,
2013-02-28 15:48:00,29.1,23.0,29.92,NNE,26,12.0,25.0,78,0.00,,,0.00,weatherlink.com 1.10,2013-02-28 20:48:00,
2013-02-28 16:03:00,29.1,23.0,29.92,NNE,13,13.0,23.0,77,0.00,,,0.00,weatherlink.com 1.10,2013-02-28 21:03:00,
2013-02-28 16:18:00,29.2,23.0,29.92,North,5,16.0,21.0,78,0.00,,,0.00,weatherlink.com 1.10,2013-02-28 21:18:00,
2013-02-28 16:33:00,29.2,23.0,29.93,NE,43,8.0,21.0,78,0.00,,,0.00,weatherlink.com 1.10,2013-02-28 21:33:00,
2013-02-28 16:48:00,29.2,23.0,29.93,NE,35,19.0,23.0,77,0.00,,,0.00,weatherlink.com 1.10,2013-02-28 21:48:00,
2013-02-28 17:18:00,29.2,23.0,29.95,NNE,25,17.0,22.0,76,0.00,,,0.00,weatherlink.com 1.10,2013-02-28 22:18:00,
2013-02-28 17:33:00,29.0,22.0,29.95,NE,42,17.0,25.0,74,0.00,,,0.00,weatherlink.com 1.10,2013-02-28 22:33:00,
2013-02-28 17:48:00,29.0,21.0,29.96,NNE,17,15.0,23.0,73,0.00,,,0.00,weatherlink.com 1.10,2013-02-28 22:48:00,
2013-02-28 18:04:00,29.2,21.0,29.96,NE,44,16.0,25.0,70,0.00,,,0.00,weatherlink.com 1.10,2013-02-28 23:04:00,
2013-02-28 18:19:00,29.2,21.0,29.97,NNE,33,12.0,21.0,70,0.00,,,0.00,weatherlink.com 1.10,2013-02-28 23:19:00,
2013-02-28 18:34:00,29.1,21.0,29.98,NE,47,16.0,22.0,72,0.00,,,0.00,weatherlink.com 1.10,2013-02-28 23:34:00,
2013-02-28 18:49:00,29.2,21.0,29.98,NE,44,16.0,25.0,71,0.00,,,0.00,weatherlink.com 1.10,2013-02-28 23:49:00,
2013-02-28 19:04:00,28.9,21.0,29.99,NNE,26,15.0,25.0,73,0.00,,,0.00,weatherlink.com 1.10,2013-03-01 00:04:00,
2013-02-28 19:19:00,28.9,21.0,29.99,NE,42,18.0,24.0,72,0.00,,,0.00,weatherlink.com 1.10,2013-03-01 00:19:00,
2013-02-28 19:34:00,28.7,20.0,30.00,NE,40,18.0,23.0,71,0.00,,,0.00,weatherlink.com 1.10,2013-03-01 00:34:00,
2013-02-28 19:49:00,28.3,20.0,30.01,NE,52,10.0,24.0,71,0.00,,,0.00,weatherlink.com 1.10,2013-03-01 00:49:00,
2013-02-28 20:04:00,27.9,20.0,30.01,NE,49,18.0,25.0,71,0.00,,,0.00,weatherlink.com 1.10,2013-03-01 01:04:00,
2013-02-28 20:19:00,27.6,19.0,30.01,NE,44,16.0,24.0,71,0.00,,,0.00,weatherlink.com 1.10,2013-03-01 01:19:00,
2013-02-28 20:34:00,27.2,19.0,30.02,NE,41,20.0,25.0,70,0.00,,,0.00,weatherlink.com 1.10,2013-03-01 01:34:00,
2013-02-28 20:49:00,26.9,18.0,30.02,ENE,70,9.0,27.0,70,0.00,,,0.00,weatherlink.com 1.10,2013-03-01 01:49:00,
2013-02-28 21:04:00,26.6,18.0,30.02,NE,44,14.0,20.0,71,0.00,,,0.00,weatherlink.com 1.10,2013-03-01 02:04:00,
2013-02-28 21:19:00,26.3,18.0,30.03,NE,38,17.0,21.0,71,0.00,,,0.00,weatherlink.com 1.10,2013-03-01 02:19:00,
2013-02-28 21:34:00,26.0,18.0,30.03,NE,53,16.0,21.0,71,0.00,,,0.00,weatherlink.com 1.10,2013-03-01 02:34:00,
2013-02-28 21:49:00,25.8,18.0,30.04,ENE,63,19.0,22.0,71,0.00,,,0.00,weatherlink.com 1.10,2013-03-01 02:49:00,
2013-02-28 22:04:00,25.5,17.0,30.04,NE,44,9.0,19.0,71,0.00,,,0.00,weatherlink.com 1.10,2013-03-01 03:04:00,
2013-02-28 22:19:00,25.4,17.0,30.05,NE,55,13.0,17.0,71,0.00,,,0.00,weatherlink.com 1.10,2013-03-01 03:19:00,
2013-02-28 22:34:00,25.2,17.0,30.05,ENE,62,13.0,20.0,72,0.00,,,0.00,weatherlink.com 1.10,2013-03-01 03:34:00,
2013-02-28 22:49:00,24.9,17.0,30.06,NE,47,9.0,17.0,71,0.00,,,0.00,weatherlink.com 1.10,2013-03-01 03:49:00,
2013-02-28 23:04:00,24.7,17.0,30.06,ENE,62,9.0,15.0,71,0.00,,,0.00,weatherlink.com 1.10,2013-03-01 04:04:00,
2013-02-28 23:19:00,24.4,17.0,30.06,ENE,59,11.0,17.0,72,0.00,,,0.00,weatherlink.com 1.10,2013-03-01 04:19:00,
2013-02-28 23:34:00,24.0,16.0,30.06,ENE,78,13.0,20.0,72,0.00,,,0.00,weatherlink.com 1.10,2013-03-01 04:34:00,
2013-02-28 23:49:00,23.6,16.0,30.07,NE,52,8.0,16.0,73,0.00,,,0.00,weatherlink.com 1.10,2013-03-01 04:49:00,